Regional Weather Roundup
Issued by NWS

Home | Current Version | Previous Version | Text Only | Print | Product List | Glossary Off
Versions: 1 2 3 4 5 6 7 8 9 10 11 12 13 14 15 16 17 18 19 20 21 22 23 24 25 26 27 28 29 30 31 32 33 34 35 36 37 38 39 40 41 42 43 44 45 46 47 48 49 50

000
ASUS43 KBIS 010120
RWRND

NORTH DAKOTA REGIONAL WEATHER ROUNDUP
NATIONAL WEATHER SERVICE BISMARCK ND
800 PM CDT THU JUL 31 2014

NOTE: "FAIR" INDICATES FEW OR NO CLOUDS BELOW 12,000 FEET WITH NO
SIGNIFICANT WEATHER AND/OR OBSTRUCTIONS TO VISIBILITY.


NDZ001>003-009>011-017-010200-
NORTHWEST NORTH DAKOTA

CITY           SKY/WX    TMP DP  RH WIND       PRES   REMARKS
WILLISTON      SUNNY     84  57  39 E13       30.00R
MINOT          SUNNY     76  61  59 E5        30.02F
MINOT AFB      SUNNY     78  61  55 SE6       30.02F
$$

NDZ018>021-031>035-040>046-010200-
SOUTHWEST NORTH DAKOTA

CITY           SKY/WX    TMP DP  RH WIND       PRES   REMARKS
BISMARCK       SUNNY     83  49  30 S7        30.03S
DICKINSON      SUNNY     80  59  48 SE8       30.02F
GARRISON         N/A     76  58  53 E7        30.03F
HETTINGER ARPT SUNNY     83  51  33 E7        30.05F
$$

NDZ004>008-012>016-024-026-027-054-010200-
NORTHEAST NORTH DAKOTA

CITY           SKY/WX    TMP DP  RH WIND       PRES   REMARKS
GRAND FORKS    PTCLDY    78  66  66 N5        29.98S
GRND FRKS AFB  PTCLDY    76  68  76 NE2       30.00S
DEVILS LAKE    SUNNY     75  61  60 N5        30.01S
$$

NDZ022-023-025-028>030-036>039-047>053-010200-
SOUTHEAST NORTH DAKOTA

CITY           SKY/WX    TMP DP  RH WIND       PRES   REMARKS
FARGO          CLEAR     79  61  53 E6        29.99S
JAMESTOWN      CLEAR     78  60  53 N3        30.02F
$$



USA.gov is the U.S. government's official web portal to all federal, state and local government web resources and services.